Location: Huisseau
(47.5933°N, 1.4533°E)
Time: 17:42:22
(UTC+00:00)

CENTAUR R/B - Pass Details

Date: 23 November 2025
Orbit: 633 x 1547 km, 63.4° (Epoch: 06 December)

Event Time Altitude Azimuth Distance (km) Brightness Sun altitude
Rises 18:16:25 0° 178° (S) 3,163 5.3 -20.9°
Reaches altitude 10° 18:18:55 10° 166° (SSE) 2,348 4.4 -21.3°
Enters shadow 18:21:16 21° 143° (SE) 1,798 3.6 -21.7°
